Change the Weather History Date:

Monday, August 5, 2013

  Actual Average Record
Temperature  
Mean Temperature 66 °F -  
Max Temperature 77 °F 84 °F 101 °F (1955)
Min Temperature 55 °F 64 °F 52 °F (1951)
Cooling Degree Days 1    
Growing Degree Days 16 (Base 50)    
Moisture  
Dew Point 50 °F    
Average Humidity 56    
Maximum Humidity 93    
Minimum Humidity 31    
Precipitation  
Precipitation 0.00 in - - ()
Sea Level Pressure  
Sea Level Pressure 29.99 in    
Wind  
Wind Speed 4 mph (NW)    
Max Wind Speed 14 mph    
Max Gust Speed 22 mph    
Visibility 10 miles    
Events      
Averages and records for this station are not official NWS values.
T = Trace of Precipitation, MM = Missing Value Source: NWS Daily Summary

Daily Weather History Graph

Daily Weather History Graph

Search for Another Location

Airport or City:

Trip Planner

Search our weather history database for the weather conditions in past years. The results will help you decide how hot, cold, wet, or windy it might be!

Date:

Astronomy

Aug. 05, 2013 Rise Set
Actual Time 5:48 AM EDT 8:03 PM EDT
Civil Twilight 5:18 AM EDT 8:34 PM EDT
Nautical Twilight 4:39 AM EDT 9:12 PM EDT
Astronomical Twilight 3:57 AM EDT 9:54 PM EDT
Moon 4:41 AM EDT (8/5) 7:01 PM EDT (8/5)
Length of Visible Light 15h 16m
Length of Day
14h 14m
Waning Crescent, 1% of the Moon is Illuminated
Aug 5
Waning Crescent
Aug 6
New
Aug 14
First Quarter
Aug 20
Full
Aug 28
Last Quarter

Hourly Weather History & Observations

Time (EDT) Temp. Dew Point Humidity Pressure Visibility Wind Dir Wind Speed Gust Speed Precip Events Conditions
12:53 AM 66.0 °F 52.0 °F 60% 29.94 in 10.0 mi Calm Calm - N/A   Clear
1:53 AM 62.1 °F 53.1 °F 72% 29.93 in 10.0 mi NW 4.6 mph - N/A   Clear
2:53 AM 62.1 °F 53.1 °F 72% 29.94 in 10.0 mi Calm Calm - N/A   Clear
3:53 AM 59.0 °F 54.0 °F 83% 29.96 in 10.0 mi Calm Calm - N/A   Clear
4:53 AM 57.9 °F 55.0 °F 90% 29.96 in 10.0 mi Calm Calm - N/A   Clear
5:53 AM 55.9 °F 54.0 °F 93% 29.98 in 10.0 mi Calm Calm - N/A   Clear
6:53 AM 61.0 °F 54.0 °F 78% 30.01 in 10.0 mi NNW 5.8 mph - N/A   Clear
7:53 AM 64.0 °F 53.1 °F 67% 30.02 in 10.0 mi NNW 11.5 mph - N/A   Clear
8:53 AM 66.0 °F 51.1 °F 59% 30.02 in 10.0 mi NNW 6.9 mph - N/A   Clear
9:53 AM 68.0 °F 45.0 °F 43% 30.02 in 10.0 mi NW 12.7 mph 18.4 mph N/A   Clear
10:53 AM 70.0 °F 46.0 °F 42% 30.01 in 10.0 mi NW 8.1 mph - N/A   Clear
11:53 AM 72.0 °F 45.0 °F 38% 30.01 in 10.0 mi Variable 6.9 mph 17.3 mph N/A   Clear
12:53 PM 73.9 °F 43.0 °F 33% 30.00 in 10.0 mi NNW 13.8 mph 17.3 mph N/A   Clear
1:53 PM 75.0 °F 42.1 °F 31% 29.99 in 10.0 mi Variable 6.9 mph 21.9 mph N/A   Clear
2:53 PM 75.9 °F 44.1 °F 32% 29.97 in 10.0 mi NW 9.2 mph 19.6 mph N/A   Clear
3:53 PM 77.0 °F 46.0 °F 33% 29.96 in 10.0 mi North 11.5 mph 17.3 mph N/A   Clear
4:53 PM 77.0 °F 46.0 °F 33% 29.97 in 10.0 mi WNW 5.8 mph - N/A   Clear
5:53 PM 77.0 °F 46.9 °F 34% 29.98 in 10.0 mi WNW 8.1 mph - N/A   Clear
6:53 PM 75.0 °F 46.0 °F 36% 29.99 in 10.0 mi NNW 5.8 mph - N/A   Clear
7:53 PM 73.0 °F 48.0 °F 41% 30.01 in 10.0 mi NW 5.8 mph - N/A   Clear
8:53 PM 71.1 °F 50.0 °F 47% 30.03 in 10.0 mi West 3.5 mph - N/A   Clear
9:53 PM 64.0 °F 55.0 °F 73% 30.04 in 10.0 mi Calm Calm - N/A   Clear
10:53 PM 62.1 °F 55.0 °F 78% 30.04 in 10.0 mi Calm Calm - N/A   Clear
11:53 PM 62.1 °F 55.9 °F 80% 30.05 in 10.0 mi Calm Calm - N/A   Clear